Погода в Сен-Бриё

Франция     48°30′38″N   2°45′35″W
темп.,
°C
ветер,
м/с
пор.,
м/с
влажн.,
%
обл.,
%
осадки,
мм/ч
давл.,
гПа
погр.,
м
11 мая, вт
вт1123:00+7ю489393 0.0 1007199
02:00+7ю489486 0.0 1007173
05:00+7ююз4993100 0.0 1007252
08:00+7ююз498814 0.0 1008398
11:00+12ююз1013596 0.0 10081578
14:00+10юз8148497 0.6 10081219
17:00+13зюз10126261 0.4 10101518
20:00+12зюз711665 0.7 10111185
12 мая, ср
ср1223:00+7ююз49875 0.0 1013224
02:00+6ююз4109337 0.0 1013222
05:00+6ююз489390 0.0 1011143
08:00+8ююв388598 0.0 1011232
11:00+9юв61292100 1.3 1009645
14:00+10ююв8149055 1.8 1007855
17:00+11ююз71291100 1.9 1006754
20:00+8зсз7128855 6.2 1008915
13 мая, чт
чт1323:00+6ююз4109213 0.0 1009228
02:00+9зюз6109097 0.0 1008561
05:00+9юз61087100 0.1 1007718
08:00+9юз6119363 0.8 1007598
11:00+13зюз687535 0.3 10071045
14:00+13з577190 1.3 10061158
17:00+12зсз5682100 2.1 1006788
20:00+10зюз5980100 3.1 1006866
14 мая, пт
пт1423:00+9юз71190100 0.3 1005851
02:00+9з7119374 0.5 1005622
05:00+8ссз9149299 0.5 1006767
08:00+8зсз499396 0.9 1008463
11:00+11ссз7108481 0.5 1010949
14:00+13с677722 1.0 1011908
17:00+13с677212 0.3 1012939
20:00+12ссз467797 0.3 1012646
15 мая, сб
сб1523:00+8з369498 0.0 1014139
02:00+8юз3695100 0.0 1013167
05:00+8юз3792100 0.0 1013210
08:00+9ю4991100 0.1 1012420
11:00+10ю61292100 0.2 1010656
14:00+12ю61091100 0.3 1010562
17:00+13зсз6981100 1.1 1009540
20:00+13зсз367499 1.2 1010502